{"data":{"norad_id":68853,"epoch":"2026-09-19T07:05:48.504192Z","epoch_age_seconds":119463,"freshness":"FRESH","line1":"1 68853U 26094Q   26262.29570028  .00015115  00000+0  46955-3 0  9996","line2":"2 68853  97.2816 275.4473 0001321  95.5584 264.5809 15.33446844 22471","mean_motion":15.33446844,"eccentricity":0.0001321,"inclination_deg":97.2816,"raan_deg":275.4473,"arg_perigee_deg":95.5584,"mean_anomaly_deg":264.5809,"bstar":0.00046955,"rev_number":2247,"period_min":93.906091732776,"perigee_km":464.6336386107,"apogee_km":466.44173746328,"semimajor_km":6843.674688037,"source":"CELESTRAK","updated_at":"2026-09-20T09:00:44.042978Z"}}